Home   Weather   Narowal   Past weeks

Flag for Pakistan Past Weather in Narowal, Pakistan — Yesterday and Last 2 Weeks

Now
52 °F

Fog.


Feels Like: 51 °F
Forecast: 47 / 73 °F
Wind: 5 mph from South

Location: Amritsar Airport

Current Time: Jan 21, 2017 at 11:02:04 pm

Latest Report: Jan 21, 2017 at 10:00 pm


Visibility: 1 mi

Pressure: 30.18 "Hg

Humidity: 100%

Dew Point: 52 °F

Location of NarowalLocation

Past Weather in Narowal — Graph

°F

Narowal Temperature Yesterday

Maximum temperature yesterday: 66 °F (at 2:30 pm)
Minimum temperature yesterday: 37 °F (at 5:00 am)
Average temperature yesterday: 51 °F

High & Low Weather Summary for the Past Weeks

 TemperatureHumidityPressure
High68 °F (Jan 15, 11:30 am)100% (Jan 6, 9:00 pm)30.36 "Hg (Jan 6, 9:00 pm)
Low34 °F (Jan 11, 6:30 am)30% (Jan 11, 2:30 pm)29.86 "Hg (Jan 7, 2:30 am)
Average50 °F89%30.08 "Hg
* Reported Jan 6 9:00 pm — Jan 21 9:30 pm, Narowal, Weather by CustomWeather, © 2017

Note: Actual official high and low records may vary slightly from our data, if they occured in-between our weather recording intervals... More about our weather records

Advertising

Narowal Weather History for the Previous 24 Hours

Scroll right to see more
 ConditionsComfort  
Time TempWeatherWind HumidityBarometerVisibility
9:30 pm
Sat, Jan 21
54 °FFog.1 mph100%30.15 "Hg1 mi
9:00 pm50 °FFog.No wind100%30.15 "Hg1 mi
8:30 pm54 °FFog.No wind100%30.15 "Hg1 mi
8:00 pm54 °FFog.No wind100%30.15 "Hg1 mi
7:30 pm54 °FFog.No wind100%30.12 "Hg2 mi
7:00 pm54 °FFog.No wind100%30.12 "Hg2 mi
6:30 pm55 °FFog.2 mph100%30.12 "Hg2 mi
5:30 pm57 °FFog.No wind100%30.12 "Hg2 mi
5:00 pm57 °FFog.6 mph100%30.12 "Hg2 mi
4:30 pm59 °FFog.3 mph100%30.12 "Hg2 mi
4:00 pm61 °FFog.2 mph94%30.12 "Hg2 mi
3:30 pm61 °FFog.6 mph94%30.12 "Hg2 mi
2:30 pm63 °FFog.2 mph77%30.12 "Hg2 mi
2:00 pm63 °FFog.5 mph83%30.12 "Hg2 mi
1:30 pm61 °FBroken clouds.7 mph83%30.12 "Hg2 mi
1:00 pm61 °FFog.6 mph68%30.15 "Hg2 mi
12:30 pm61 °FFog.8 mph83%30.15 "Hg2 mi
12:00 pm61 °FFog.2 mph83%30.15 "Hg2 mi
8:30 am48 °FFog.2 mph100%30.15 "Hg1 mi
8:00 am46 °FFog.1 mph100%30.12 "Hg1 mi
7:30 am46 °FFog.No wind100%30.12 "Hg1 mi
7:00 am46 °FFog.No wind100%30.09 "Hg1 mi
6:30 am46 °FFog.No wind100%30.09 "Hg1 mi
5:30 am46 °FFog.No wind100%30.09 "Hg1 mi
5:00 am46 °FFog.No wind100%30.09 "Hg1 mi
4:30 am46 °FFog.No wind100%30.09 "Hg1 mi
2:00 am46 °FFog.No wind100%30.12 "Hg1 mi
1:30 am46 °FFog.No wind100%30.12 "Hg1 mi
1:00 am46 °FFog.No wind100%30.12 "Hg1 mi
12:30 am46 °FFog.No wind100%30.15 "Hg1 mi
12:00 am46 °FFog.No wind100%30.15 "Hg1 mi
11:30 pm
Fri, Jan 20
46 °FFog.No wind100%30.15 "Hg2 mi
11:00 pm48 °FFog.No wind100%30.15 "Hg2 mi
Weather by CustomWeather, © 2017

See weather overviewHow to use our weather pages